JLY1424 SBSP-SBRJ

Flight info

Callsign JLY1424
Flight time 0h 37m
Altitude 27000
Route NIBRU UZ171 KEVUN
Aircraft B737/M-SDE2E3FGHIRWXY/LB1

Departure

Time 2026-05-03 22:55
Airport Congonhas–Deputado Freitas Nobre Airport (SBSP)

Arrival

Time 2026-05-03 23:32
Airport Santos Dumont Airport (SBRJ)
Time Latitude Longitude Altitude Speed Heading
2026-05-03 22:25 -23.62628 -46.65887 2599 ft 0 kts 237°
2026-05-03 22:40 -23.62623 -46.65878 2600 ft 4 kts 237°
2026-05-03 22:41 -23.62611 -46.65853 2600 ft 4 kts 266°
2026-05-03 22:41 -23.62616 -46.65837 2600 ft 3 kts 328°
2026-05-03 22:41 -23.62617 -46.65836 2600 ft 0 kts 328°
2026-05-03 22:44 -23.62617 -46.65837 2600 ft 0 kts 328°
2026-05-03 22:44 -23.62613 -46.65838 2600 ft 1 kts 337°
2026-05-03 22:44 -23.62602 -46.65840 2600 ft 4 kts 352°
2026-05-03 22:45 -23.62561 -46.65847 2600 ft 8 kts 350°
2026-05-03 22:45 -23.62512 -46.65871 2600 ft 8 kts 319°
2026-05-03 22:45 -23.62466 -46.65901 2600 ft 8 kts 334°
2026-05-03 22:45 -23.62419 -46.65927 2600 ft 7 kts 332°
2026-05-03 22:46 -23.62375 -46.65955 2599 ft 7 kts 327°
2026-05-03 22:46 -23.62332 -46.65986 2599 ft 8 kts 327°
2026-05-03 22:46 -23.62286 -46.66017 2599 ft 8 kts 328°
2026-05-03 22:46 -23.62237 -46.66046 2599 ft 8 kts 335°
2026-05-03 22:47 -23.62186 -46.66078 2594 ft 9 kts 325°
2026-05-03 22:47 -23.62178 -46.66084 2595 ft 0 kts 326°
2026-05-03 22:48 -23.62154 -46.66101 2594 ft 9 kts 326°
2026-05-03 22:48 -23.62131 -46.66118 2593 ft 0 kts 327°
2026-05-03 22:51 -23.62128 -46.66119 2594 ft 2 kts 327°
2026-05-03 22:51 -23.62101 -46.66135 2591 ft 8 kts 341°
2026-05-03 22:51 -23.62049 -46.66102 2591 ft 13 kts 91°
2026-05-03 22:51 -23.62089 -46.66048 2596 ft 0 kts 149°
2026-05-03 22:54 -23.62313 -46.65892 2599 ft 81 kts 147°
2026-05-03 22:54 -23.63013 -46.65406 2610 ft 155 kts 148°
2026-05-03 22:54 -23.64073 -46.64699 3069 ft 185 kts 147°
2026-05-03 22:55 -23.65084 -46.63871 4384 ft 176 kts 126°
2026-05-03 22:55 -23.65683 -46.62659 5297 ft 192 kts 116°
2026-05-03 22:55 -23.66319 -46.61224 5609 ft 228 kts 116°
2026-05-03 22:55 -23.67057 -46.59600 6125 ft 254 kts 116°
2026-05-03 22:56 -23.67902 -46.57799 6676 ft 278 kts 118°
2026-05-03 22:56 -23.68812 -46.55916 7723 ft 281 kts 118°
2026-05-03 22:56 -23.69749 -46.54004 8653 ft 291 kts 118°
2026-05-03 22:56 -23.70723 -46.52030 9558 ft 300 kts 119°
2026-05-03 22:57 -23.71663 -46.49968 10487 ft 307 kts 108°
2026-05-03 22:57 -23.71923 -46.47599 10995 ft 330 kts 85°
2026-05-03 22:57 -23.71624 -46.45005 11214 ft 359 kts 81°
2026-05-03 22:57 -23.71205 -46.42258 11761 ft 373 kts 80°
2026-05-03 22:58 -23.70760 -46.39446 12561 ft 378 kts 80°
2026-05-03 22:58 -23.70319 -46.36600 13453 ft 382 kts 81°
2026-05-03 22:58 -23.70032 -46.34700 13966 ft 386 kts 81°
2026-05-03 22:58 -23.69604 -46.31785 14666 ft 392 kts 81°
2026-05-03 22:59 -23.69185 -46.28888 15305 ft 399 kts 81°
2026-05-03 22:59 -23.68754 -46.25875 15957 ft 405 kts 82°
2026-05-03 22:59 -23.68316 -46.22812 16601 ft 412 kts 82°
2026-05-03 22:59 -23.67871 -46.19698 17229 ft 419 kts 82°
2026-05-03 23:00 -23.67419 -46.16539 17860 ft 425 kts 82°
2026-05-03 23:00 -23.66957 -46.13328 18439 ft 432 kts 82°
2026-05-03 23:00 -23.66490 -46.10073 18974 ft 437 kts 82°
2026-05-03 23:00 -23.66016 -46.06776 19513 ft 442 kts 82°
2026-05-03 23:01 -23.65537 -46.03445 20048 ft 447 kts 82°
2026-05-03 23:01 -23.65051 -46.00068 20593 ft 452 kts 82°
2026-05-03 23:01 -23.64560 -45.96660 21100 ft 458 kts 82°
2026-05-03 23:01 -23.64062 -45.93210 21587 ft 463 kts 82°
2026-05-03 23:02 -23.63557 -45.89717 22089 ft 468 kts 81°
2026-05-03 23:02 -23.63047 -45.86192 22593 ft 473 kts 81°
2026-05-03 23:02 -23.62530 -45.82632 23081 ft 478 kts 81°
2026-05-03 23:02 -23.62006 -45.79028 23552 ft 483 kts 81°
2026-05-03 23:03 -23.61477 -45.75390 23947 ft 489 kts 81°
2026-05-03 23:03 -23.60940 -45.71712 24276 ft 494 kts 81°
2026-05-03 23:03 -23.60397 -45.67992 24669 ft 498 kts 81°
2026-05-03 23:03 -23.59851 -45.64260 25068 ft 500 kts 81°
2026-05-03 23:04 -23.59301 -45.60506 25495 ft 503 kts 81°
2026-05-03 23:04 -23.58746 -45.56728 25817 ft 508 kts 80°
2026-05-03 23:04 -23.58195 -45.52974 26735 ft 495 kts 80°
2026-05-03 23:04 -23.57648 -45.49256 27124 ft 501 kts 80°
2026-05-03 23:05 -23.57066 -45.45482 27239 ft 508 kts 78°
2026-05-03 23:05 -23.56347 -45.41732 27242 ft 516 kts 76°
2026-05-03 23:05 -23.55518 -45.37898 27237 ft 523 kts 75°
2026-05-03 23:05 -23.54651 -45.34034 27239 ft 529 kts 75°
2026-05-03 23:06 -23.53777 -45.30125 27240 ft 533 kts 75°
2026-05-03 23:06 -23.52912 -45.26180 27245 ft 537 kts 75°
2026-05-03 23:06 -23.52057 -45.22211 27240 ft 540 kts 75°
2026-05-03 23:06 -23.51206 -45.18215 27229 ft 543 kts 75°
2026-05-03 23:07 -23.50357 -45.14211 27237 ft 541 kts 75°
2026-05-03 23:07 -23.49514 -45.10235 27227 ft 536 kts 75°
2026-05-03 23:07 -23.48675 -45.06293 27220 ft 533 kts 75°
2026-05-03 23:07 -23.47833 -45.02354 27226 ft 534 kts 75°
2026-05-03 23:08 -23.46989 -44.98413 27228 ft 535 kts 75°
2026-05-03 23:08 -23.46141 -44.94463 27211 ft 536 kts 75°
2026-05-03 23:08 -23.45277 -44.90513 27219 ft 536 kts 75°
2026-05-03 23:08 -23.44401 -44.86568 27225 ft 536 kts 75°
2026-05-03 23:09 -23.43522 -44.82635 27220 ft 535 kts 75°
2026-05-03 23:09 -23.42641 -44.78700 27233 ft 534 kts 75°
2026-05-03 23:09 -23.41762 -44.74766 27225 ft 534 kts 75°
2026-05-03 23:09 -23.40902 -44.70910 27134 ft 511 kts 75°
2026-05-03 23:10 -23.40087 -44.67240 26919 ft 487 kts 75°
2026-05-03 23:10 -23.39301 -44.63715 26323 ft 473 kts 75°
2026-05-03 23:10 -23.38527 -44.60255 25473 ft 469 kts 75°
2026-05-03 23:10 -23.37755 -44.56815 24575 ft 466 kts 76°
2026-05-03 23:11 -23.36989 -44.53405 23766 ft 461 kts 76°
2026-05-03 23:11 -23.36234 -44.50040 22932 ft 454 kts 76°
2026-05-03 23:11 -23.35493 -44.46738 22187 ft 444 kts 76°
2026-05-03 23:11 -23.34767 -44.43506 21443 ft 436 kts 76°
2026-05-03 23:12 -23.33877 -44.40389 20678 ft 428 kts 66°
2026-05-03 23:12 -23.32684 -44.37499 19942 ft 420 kts 63°
2026-05-03 23:12 -23.31408 -44.34673 19228 ft 413 kts 62°
2026-05-03 23:12 -23.30137 -44.31892 18280 ft 411 kts 62°
2026-05-03 23:13 -23.28877 -44.29094 17130 ft 411 kts 63°
2026-05-03 23:13 -23.27645 -44.26302 16048 ft 409 kts 64°
2026-05-03 23:13 -23.26434 -44.23515 14983 ft 405 kts 64°
2026-05-03 23:13 -23.25246 -44.20763 13950 ft 400 kts 65°
2026-05-03 23:14 -23.24090 -44.18074 13363 ft 381 kts 65°
2026-05-03 23:14 -23.22992 -44.15521 12768 ft 365 kts 65°
2026-05-03 23:14 -23.21939 -44.13075 12243 ft 350 kts 65°
2026-05-03 23:14 -23.20923 -44.10721 11733 ft 337 kts 64°
2026-05-03 23:15 -23.19944 -44.08453 11248 ft 326 kts 64°
2026-05-03 23:15 -23.18982 -44.06305 11070 ft 306 kts 63°
2026-05-03 23:15 -23.18052 -44.04293 10884 ft 289 kts 63°
2026-05-03 23:15 -23.17174 -44.02397 10723 ft 273 kts 63°
2026-05-03 23:16 -23.16343 -44.00597 10572 ft 260 kts 63°
2026-05-03 23:16 -23.15551 -43.98857 10453 ft 255 kts 63°
2026-05-03 23:16 -23.14797 -43.97111 10331 ft 256 kts 64°
2026-05-03 23:16 -23.14045 -43.95344 10204 ft 258 kts 64°
2026-05-03 23:17 -23.13290 -43.93569 10065 ft 260 kts 64°
2026-05-03 23:17 -23.12535 -43.91795 9913 ft 257 kts 64°
2026-05-03 23:17 -23.11789 -43.90047 9744 ft 253 kts 64°
2026-05-03 23:17 -23.11057 -43.88331 9609 ft 249 kts 64°
2026-05-03 23:18 -23.10329 -43.86629 9477 ft 249 kts 64°
2026-05-03 23:18 -23.09599 -43.84924 9348 ft 249 kts 64°
2026-05-03 23:18 -23.08870 -43.83221 9219 ft 249 kts 64°
2026-05-03 23:18 -23.08140 -43.81515 9082 ft 249 kts 64°
2026-05-03 23:19 -23.07411 -43.79815 8940 ft 246 kts 64°
2026-05-03 23:19 -23.06702 -43.78159 8808 ft 238 kts 64°
2026-05-03 23:19 -23.06015 -43.76556 8674 ft 230 kts 64°
2026-05-03 23:19 -23.05348 -43.75000 8533 ft 224 kts 64°
2026-05-03 23:20 -23.04696 -43.73481 8421 ft 221 kts 64°
2026-05-03 23:20 -23.04044 -43.71965 8346 ft 222 kts 64°
2026-05-03 23:20 -23.03385 -43.70432 8221 ft 226 kts 64°
2026-05-03 23:20 -23.02708 -43.68869 8028 ft 232 kts 64°
2026-05-03 23:21 -23.02021 -43.67297 7813 ft 229 kts 64°
2026-05-03 23:21 -23.01342 -43.65746 7604 ft 226 kts 64°
2026-05-03 23:21 -23.00674 -43.64221 7380 ft 222 kts 64°
2026-05-03 23:21 -23.00015 -43.62715 7140 ft 222 kts 65°
2026-05-03 23:22 -22.98710 -43.59745 6768 ft 214 kts 66°
2026-05-03 23:22 -22.98077 -43.58305 6638 ft 213 kts 66°
2026-05-03 23:22 -22.97435 -43.56843 6531 ft 216 kts 66°
2026-05-03 23:23 -22.96773 -43.55340 6388 ft 219 kts 66°
2026-05-03 23:23 -22.96122 -43.53861 6265 ft 220 kts 66°
2026-05-03 23:23 -22.95462 -43.52362 6124 ft 220 kts 66°
2026-05-03 23:23 -22.94804 -43.50865 5972 ft 221 kts 67°
2026-05-03 23:24 -22.94163 -43.49359 5770 ft 219 kts 67°
2026-05-03 23:24 -22.93534 -43.47869 5587 ft 216 kts 67°
2026-05-03 23:24 -22.92913 -43.46403 5422 ft 211 kts 68°
2026-05-03 23:24 -22.92295 -43.44938 5242 ft 215 kts 67°
2026-05-03 23:25 -22.91673 -43.43470 5016 ft 212 kts 68°
2026-05-03 23:25 -22.91062 -43.42030 4842 ft 209 kts 68°
2026-05-03 23:25 -22.90460 -43.40611 4668 ft 205 kts 68°
2026-05-03 23:25 -22.89874 -43.39232 4463 ft 200 kts 68°
2026-05-03 23:26 -22.89301 -43.37880 4286 ft 196 kts 68°
2026-05-03 23:26 -22.88731 -43.36535 4137 ft 196 kts 68°
2026-05-03 23:26 -22.88304 -43.35138 3890 ft 195 kts 93°
2026-05-03 23:26 -22.88439 -43.33688 3694 ft 192 kts 98°
2026-05-03 23:27 -22.88565 -43.32304 3438 ft 178 kts 99°
2026-05-03 23:27 -22.88680 -43.31014 3231 ft 168 kts 99°
2026-05-03 23:27 -22.88790 -43.29787 3001 ft 157 kts 100°
2026-05-03 23:27 -22.88896 -43.28632 2899 ft 152 kts 99°
2026-05-03 23:28 -22.89002 -43.27487 2677 ft 155 kts 99°
2026-05-03 23:28 -22.89163 -43.26318 2407 ft 154 kts 114°
2026-05-03 23:28 -22.89625 -43.25298 2150 ft 149 kts 120°
2026-05-03 23:28 -22.90069 -43.24321 1903 ft 144 kts 119°
2026-05-03 23:29 -22.90503 -43.23358 1670 ft 142 kts 119°
2026-05-03 23:29 -22.90937 -43.22393 1441 ft 143 kts 118°
2026-05-03 23:29 -22.91370 -43.21428 1251 ft 144 kts 118°
2026-05-03 23:29 -22.91806 -43.20456 1199 ft 143 kts 120°
2026-05-03 23:30 -22.92402 -43.19593 1037 ft 146 kts 147°
2026-05-03 23:30 -22.93332 -43.19167 854 ft 143 kts 164°
2026-05-03 23:30 -22.94248 -43.18787 654 ft 138 kts 151°
2026-05-03 23:30 -22.94869 -43.18018 582 ft 141 kts 110°
2026-05-03 23:31 -22.94848 -43.16961 606 ft 146 kts 69°
2026-05-03 23:31 -22.94083 -43.16238 453 ft 155 kts 18°
2026-05-03 23:31 -22.93035 -43.16171 223 ft 143 kts 359°
2026-05-03 23:31 -22.92106 -43.16214 101 ft 124 kts 357°
2026-05-03 23:32 -22.91308 -43.16268 19 ft 90 kts 357°
2026-05-03 23:32 -22.91041 -43.16284 21 ft 0 kts 357°
2026-05-03 23:32 -22.90897 -43.16293 22 ft 41 kts 356°
2026-05-03 23:32 -22.90604 -43.16313 25 ft 33 kts 356°
2026-05-03 23:33 -22.90494 -43.16394 23 ft 19 kts 273°
2026-05-03 23:33 -22.90499 -43.16512 21 ft 15 kts 266°
2026-05-03 23:33 -22.90579 -43.16554 23 ft 14 kts 175°
2026-05-03 23:33 -22.90674 -43.16547 21 ft 14 kts 176°
2026-05-03 23:34 -22.90768 -43.16541 23 ft 13 kts 177°
2026-05-03 23:34 -22.90855 -43.16550 21 ft 13 kts 179°
2026-05-03 23:34 -22.90943 -43.16544 22 ft 12 kts 176°
2026-05-03 23:34 -22.91027 -43.16538 21 ft 12 kts 176°
2026-05-03 23:35 -22.91108 -43.16525 21 ft 12 kts 167°
2026-05-03 23:35 -22.91187 -43.16515 23 ft 11 kts 176°
2026-05-03 23:35 -22.91262 -43.16510 22 ft 7 kts 176°
2026-05-03 23:35 -22.91281 -43.16550 21 ft 7 kts 263°
2026-05-03 23:36 -22.91282 -43.16577 21 ft 0 kts 269°